Location: Tucson
(32.2217°N, 110.9265°W)
Time: 14:10:00
(UTC-07:00)

ISS - Visible Passes

Search period start: 23 June 2018 00:00
Search period end: 03 July 2018 00:00
Orbit: 403 x 408 km, 51.6° (Epoch: 24 June)

Date Brightness Start Highest point End Pass type
(mag) Time Alt. Az. Time Alt. Az. Time Alt. Az.
27 Jun -1.4 04:50:01 10° S 04:52:15 17° SE 04:54:32 10° E visible
29 Jun -3.2 04:41:08 10° SSW 04:44:20 52° SE 04:47:32 10° NE visible
30 Jun -2.0 03:51:02 18° SSE 03:52:20 23° SE 03:55:00 10° ENE visible
01 Jul -0.9 03:01:07 10° ESE 03:01:07 10° ESE 03:01:12 10° ESE visible
01 Jul -3.3 04:33:47 13° WSW 04:36:30 48° NW 04:39:42 10° NE visible
02 Jul -3.8 03:43:46 54° SSW 03:44:22 73° SE 03:47:38 10° NE visible
